Location: Hawks Ness
(60.2333°N, 1.1667°W)
Time: 02:08:13
(UTC+00:00)

Daily predictions for brighter satellites

Satellite Brightness Start Highest point End
(mag) Time Altitude Azimuth Time Altitude Azimuth Time Altitude Azimuth
Cosmos 2369 Rocket 4.1 00:57:20 26° NNE 00:57:20 26° NNE 01:01:00 10° NE
Cosmos 2322 Rocket 4.3 01:07:36 21° ENE 01:07:36 21° ENE 01:09:45 10° NE
Cosmos 2360 Rocket 4.4 01:14:50 18° ENE 01:14:50 18° ENE 01:17:07 10° NE
Cosmos 1980 Rocket 3.8 01:20:46 30° NE 01:20:46 30° NE 01:23:31 10° NE
Cosmos 1943 Rocket 3.9 01:19:25 28° N 01:19:25 28° N 01:24:09 10° ENE
CZ-2D R/B 3.9 01:23:57 10° NNE 01:26:37 27° NE 01:26:37 27° NE
USA 229 DEB 4.2 01:48:26 57° ENE 01:48:26 57° ENE 01:53:59 10° ENE
USA 229 4.2 01:48:33 57° ENE 01:48:33 57° ENE 01:54:05 10° ENE
SL-16 R/B 4.0 01:52:54 27° NNW 01:52:54 27° NNW 01:55:34 10° NNW
NOSS 3-1 (A) 4.2 01:53:07 50° ENE 01:53:07 50° ENE 01:58:22 10° ENE
Cosmos 2344 4.0 01:55:46 56° WNW 01:57:59 77° NNE 02:09:03 10° E
ATLAS 3B R/B 4.3 02:03:16 21° ESE 02:03:16 21° ESE 02:05:21 10° ESE
NOSS 3-1 (C) 3.9 02:07:16 62° ENE 02:07:16 62° ENE 02:13:16 10° ENE
CENTAUR R/B 3.6 02:09:11 47° SE 02:09:11 47° SE 02:14:55 10° SE
ARIANE 5 R/B 4.1 02:04:27 10° NNE 02:08:07 29° ENE 02:08:07 29° ENE
Cosmos 1697 Rocket 3.8 02:11:16 38° N 02:11:16 38° N 02:15:19 10° NE
Cosmos 2333 Rocket 4.1 02:09:33 21° ESE 02:09:57 21° ESE 02:14:09 10° NE
SL-16 R/B 2.9 02:21:46 51° NE 02:21:46 51° NE 02:25:57 10° NE
Resurs 1-4 Rocket 3.1 02:15:10 10° NNE 02:18:44 43° NNE 02:18:44 43° NNE
Lacrosse 4 Rocket 3.9 02:24:38 20° NE 02:24:38 20° NE 02:25:57 10° NE
Cosmos 2219 Rocket 3.9 02:21:45 24° ESE 02:22:09 25° ESE 02:26:35 10° NE
Cosmos 2369 Rocket 3.6 02:39:08 24° NNW 02:41:42 35° NNE 02:46:50 10° E
ADEOS II 2.7 02:37:17 10° NNE 02:42:04 52° E 02:42:04 52° E
IRS-1D 4.2 02:38:12 10° NNE 02:42:08 51° NNE 02:42:08 51° NNE
Cosmos 1745 Rocket 4.0 02:45:02 75° ESE 02:45:05 75° E 02:51:24 10° NNE
Cosmos 2322 Rocket 2.5 02:49:25 62° NNE 02:49:25 62° NNE 02:54:10 10° NE
NPP 4.2 02:45:29 10° NNE 02:49:34 51° N 02:49:34 51° N
COSMOS 2455 3.3 02:53:16 51° SE 02:53:25 52° SE 02:59:15 10° NE
Cosmos 2360 Rocket 2.3 02:56:37 71° E 02:56:37 71° E 03:01:50 10° NE
Meteor 2-21 4.4 02:57:31 76° SE 02:57:51 79° E 03:04:03 10° NNE
IRS-1C 4.3 02:53:15 10° NNE 02:58:04 70° NE 02:58:04 70° NE
COSMOS 2428 3.6 02:59:31 37° SE 03:00:27 40° ESE 03:05:43 10° NE
Meteor 2-4 Rocket 4.4 03:03:30 45° NNW 03:03:30 45° NNW 03:08:02 10° NNE
Cosmos 1980 Rocket 3.0 03:02:32 40° NNW 03:02:32 40° NNW 03:07:45 10° NE
Cosmos 1386 Rocket 4.4 03:02:32 76° S 03:03:06 86° ESE 03:09:34 10° NNE
Cosmos 1953 3.9 02:59:33 10° N 03:03:17 33° ENE 03:03:26 33° ENE
SL-08 ROCKET BODY 4.4 03:02:55 70° SE 03:03:26 76° E 03:09:30 10° NNE
Cosmos 1943 Rocket 3.3 03:00:58 21° NNW 03:04:23 42° NNE 03:09:47 10° ESE
Cosmos 2181 Rocket 3.9 02:58:03 10° NNW 03:04:29 86° ENE 03:06:02 55° SSE
IDEFIX/ARIANE 42P 4.3 03:03:24 10° NNE 03:08:00 29° E 03:12:29 10° SSE
Cosmos 2251 Rocket 3.8 03:08:47 61° ESE 03:08:56 61° ESE 03:14:15 10° NE
CZ-2D R/B 2.8 03:04:04 10° NNE 03:07:57 44° NNW 03:07:57 44° NNW
Cosmos 1867 4.0 03:12:55 51° NNW 03:13:21 52° N 03:18:43 10° ENE
Cosmos 1269 Rocket 4.4 03:19:21 54° NNW 03:19:21 54° NNW 03:24:02 10° NNE
Cosmos 2098 Rocket 4.2 03:17:39 58° SSW 03:19:18 82° WNW 03:26:11 10° NNE
Cosmos 1842 4.4 03:22:37 43° ENE 03:22:37 43° ENE 03:25:51 10° NNE
Cosmos 1809 Rocket 4.3 03:22:13 72° W 03:22:30 73° WNW 03:28:41 10° NNE
Cosmos 1066 Rocket 4.0 03:23:49 83° W 03:23:52 83° WNW 03:29:33 10° NNE
IRS-P3 4.3 03:29:56 10° NNE 03:34:54 57° NW 03:34:54 57° NW
Meteor 1-23 Rocket 4.2 03:35:22 60° WNW 03:35:22 60° WNW 03:40:46 10° NNE
CZ-2C R/B 3.7 03:33:25 10° NNE 03:36:02 42° NNE 03:36:02 42° NNE
Cosmos 2297 3.6 03:34:42 34° NW 03:37:20 86° SW 03:43:06 10° SE
Meteor 2-14 Rocket 4.3 03:37:00 62° SW 03:37:55 72° WNW 03:44:06 10° NNE
NOSS 2-3 (E) 4.1 03:37:19 62° WNW 03:38:04 71° NNW 03:44:36 10° ENE
USA 229 DEB 3.9 03:35:53 44° WNW 03:38:13 69° N 03:45:30 10° E
USA 229 3.9 03:36:00 44° WNW 03:38:19 68° N 03:45:34 10° E
Cosmos 1975 Rocket 3.9 03:40:38 40° NNW 03:40:38 40° NNW 03:43:44 10° N
Meteor 2-21 Rocket 4.3 03:39:27 57° SW 03:40:44 75° WNW 03:46:57 10° NNE
Genesis I 4.1 03:42:43 45° NNE 03:42:43 45° NNE 03:46:10 10° ENE
NOSS 3-1 (A) 3.8 03:40:33 48° WNW 03:42:29 70° N 03:50:00 10° ENE
Exosat Rocket 4.5 03:41:50 43° WNW 03:42:54 47° NW 03:48:14 10° NE
Cosmos 2228 3.7 03:39:18 10° N 03:43:31 54° ENE 03:47:41 10° SSE
USA 234 3.6 03:37:53 10° SE 03:43:48 41° SSW 03:43:48 41° SSW
CZ-2D R/B 3.8 03:41:36 10° NNE 03:44:53 56° N 03:44:53 56° N
NOSS 2-3 (D) 4.2 03:45:14 57° WNW 03:46:13 70° NNW 03:52:44 10° ENE
NOSS 2-2 (D) 4.2 03:46:18 41° SE 03:46:34 42° SE 03:50:59 10° ENE
ARIANE 5 R/B 2.4 03:43:27 10° NNE 03:48:24 63° WNW 03:48:26 63° WNW
ATLAS 3B R/B 3.4 03:50:37 33° SSW 03:50:37 33° SSW 03:55:00 10° SSE
deb Chang Zheng 4 4.1 03:46:59 10° NNE 03:50:24 45° NNW 03:50:24 45° NNW
Cosmos 2333 Rocket 2.3 03:51:35 44° SSW 03:53:25 75° SE 03:59:09 10° NE
PSLV R/B 4.3 03:49:56 10° NNE 03:54:05 49° E 03:56:27 23° SSE
Cosmos 1726 Rocket 3.9 03:50:38 10° N 03:54:56 63° ENE 03:59:14 10° SSE
Cosmos 1025 Rocket 3.1 03:54:17 58° SSE 03:55:01 74° ESE 03:59:21 10° NNE
Okean 2 4.1 03:56:05 43° NNW 03:56:05 43° NNW 03:59:10 10° N
Cosmos 1697 Rocket 4.1 03:53:00 23° NW 03:55:07 29° N 04:00:01 10° NE
CENTAUR R/B 3.4 03:56:27 39° WSW 03:56:44 39° SW 04:04:27 10° S
NOSS 3-1 (C) 3.9 03:54:39 38° WNW 03:57:25 68° N 04:05:03 10° E
COSMO-SKYMED 1 4.1 03:53:38 10° SE 03:57:37 36° ENE 04:01:37 10° N
Cosmos 44 Rocket 3.9 04:00:26 39° S 04:00:26 39° S 04:03:42 10° SSE
Resurs 1-4 Rocket 3.2 03:55:25 10° N 03:59:48 29° NW 03:59:48 29° NW
ADEOS 4.1 03:55:46 10° NNE 04:00:58 59° ESE 04:05:55 11° S
Lacrosse 4 Rocket 2.5 04:00:57 31° NNW 04:01:07 31° NNW 04:04:48 10° NE
Meteor 2-16 Rocket 4.4 03:59:44 45° SW 04:01:34 66° WNW 04:07:40 10° NNE
USA 32 4.2 03:57:49 14° S 04:02:17 74° E 04:07:33 10° NNE
Cosmos 1709 Rocket 4.0 04:00:40 40° SW 04:03:04 68° WNW 04:09:28 10° NNE
Cosmos 2333 4.1 04:02:09 50° SW 04:03:43 81° NW 04:09:27 10° NE
SL-16 R/B 2.9 04:03:38 35° WNW 04:04:54 40° NNW 04:10:16 10° NE
Cosmos 2219 Rocket 2.1 04:03:30 43° SSW 04:05:28 85° SE 04:11:07 10° NE
BREEZE-M DEB (TANK) 4.4 04:07:06 18° S 04:07:06 18° S 04:08:46 10° SE
Cosmos 468 Rocket 4.1 04:01:22 10° NNW 04:06:36 73° NE 04:11:44 10° SE
Nadezhda 3 Rocket 4.0 04:05:45 10° NNW 04:12:11 89° ENE 04:18:33 10° SSE
Cosmos 2322 3.7 04:11:01 45° WSW 04:12:42 67° NW 04:18:27 10° NE
Cosmos 2344 4.2 04:05:47 19° WNW 04:12:50 69° SW 04:24:57 10° SE
Cosmos 2184 Rocket 4.2 04:06:59 10° S 04:13:13 75° E 04:19:34 10° NNE
Meteor 1-4 Rocket 3.7 04:16:23 12° SSE 04:19:19 41° E 04:22:36 10° NNE
Spot 4 Rocket 4.3 04:14:29 10° NNE 04:19:27 49° WNW 04:20:29 43° W
ERBS 3.8 04:19:31 27° SSE 04:19:47 27° SSE 04:22:43 10° E
Cosmos 2237 Rocket 2.7 04:15:45 16° SSW 04:20:12 57° ESE 04:25:48 10° NE
CZ-2C R/B 3.6 04:15:31 10° NNE 04:20:33 46° E 04:25:31 10° S
Cosmos 389 Rocket 3.0 04:19:54 29° S 04:21:26 58° ESE 04:24:52 10° NNE
Cosmos 1726 2.3 04:17:46 10° N 04:21:27 71° ENE 04:25:07 10° SSE
Cosmos 2058 Rocket 3.2 04:17:42 10° NNW 04:22:08 76° ENE 04:26:35 10° SSE
ADEOS II 2.5 04:17:13 10° N 04:22:08 41° WNW 04:23:00 38° W
IRS-1D 4.5 04:17:51 10° N 04:22:18 29° NW 04:22:36 29° WNW
Cosmos 1570 Rocket 4.2 04:17:19 10° NNW 04:22:43 73° NE 04:28:03 10° SE
NOSS 2-2 (C) 3.7 04:21:49 44° SSW 04:22:58 65° SE 04:27:46 10° ENE
Cosmos 1356 4.2 04:24:29 38° S 04:24:29 38° S 04:26:44 10° S
Cosmos 841 Rocket 4.1 04:18:51 10° NNW 04:24:06 57° NE 04:29:18 10° SE
Meteor 1-21 4.1 04:20:26 21° SSW 04:24:19 80° WNW 04:30:04 10° NNE
Cosmos 1908 3.8 04:22:38 10° N 04:26:28 58° ENE 04:30:15 10° SSE
Cosmos 2369 Rocket 2.2 04:20:57 11° NW 04:26:30 79° NE 04:32:07 10° SE
ATLAS 2AS CENTAUR R/B 3.3 04:21:09 20° SW 04:27:02 66° SE 04:34:52 10° ENE
Cosmos 1536 Rocket 3.6 04:29:56 46° WSW 04:30:47 54° WNW 04:35:07 10° N
Cosmos 2322 Rocket 3.1 04:31:15 27° WNW 04:33:19 35° NNW 04:38:28 10° NE
Aureole 1 Rocket 3.2 04:33:00 37° WSW 04:34:45 62° NW 04:38:47 10° NNE
Cosmos 1656 Rocket 4.2 04:30:13 10° NW 04:35:39 55° NE 04:40:59 10° ESE
COBE Rocket 4.2 04:31:25 10° SSE 04:36:32 73° ENE 04:41:44 10° NNW
Cosmos 2208 Rocket 4.1 04:32:35 10° NNW 04:37:50 78° NE 04:43:06 10° SE
Cosmos 1980 3.9 04:33:41 17° SSW 04:38:10 73° SE 04:43:50 10° NE
COSMOS 2455 2.9 04:36:25 31° WSW 04:39:21 67° NNW 04:45:23 10° NE
Cosmos 1953 3.0 04:35:58 10° NNW 04:45:08 - S 04:38:52 35° WNW
Cosmos 2360 Rocket 2.8 04:38:23 30° WNW 04:40:37 42° NNW 04:46:01 10° NE
H-2A R/B 2.6 04:37:36 10° NNE 04:41:46 78° ESE 04:46:03 10° SSW
Cosmos 2074 Rocket 3.9 04:35:37 10° SSW 04:41:52 77° WNW 04:48:07 10° NNE
Cosmos 540 Rocket 3.9 04:37:47 10° NNW 04:42:57 62° NE 04:48:05 10° SE
NOSS 8 (F) 4.2 04:42:43 56° WSW 04:43:19 90° NW 04:46:53 10° ENE
Cosmos 1763 Rocket 3.4 04:38:49 10° NNW 04:44:04 83° WSW 04:49:13 10° SSE
COSMOS 2428 2.7 04:41:34 29° WSW 04:44:32 67° NW 04:50:14 10° NE
SKYMED 2 3.7 04:41:11 10° SSE 04:45:32 78° ENE 04:49:55 10° NNW
Meteor 1-31 Rocket 3.6 04:41:58 10° NNE 04:45:43 51° E 04:49:25 10° S
Cosmos 1980 Rocket 3.6 04:44:17 16° NW 04:47:48 28° N 04:52:43 10° ENE
IDEFIX/ARIANE 42P 2.5 04:42:49 10° NNE 04:48:05 70° WNW 04:53:17 10° SSW
CZ-2D R/B 3.7 04:44:51 10° N 04:48:18 18° NW 04:49:15 17° NW
Cosmos 1707 2.6 04:45:27 16° SSW 04:48:28 77° WNW 04:52:25 10° NNE
Cosmos 1943 Rocket 2.1 04:42:54 10° NW 04:48:36 77° SW 04:54:17 10° SSE
USA 267 3.9 04:42:20 10° E 04:48:40 49° SSE 04:54:10 14° SW
NOSS 7 (D) 4.5 04:50:01 41° NNW 04:50:35 50° NNE 04:53:28 10° E
Cosmos 1892 Rocket 4.0 04:46:25 10° S 04:50:47 64° E 04:55:08 10° NNE
Spot 2 3.9 04:46:52 10° NNE 04:50:53 60° WNW 04:53:14 23° SW
Cosmos 2251 Rocket 4.1 04:49:17 28° W 04:51:31 42° NW 04:56:39 10° NNE
Cosmos 1606 Rocket 3.9 04:48:56 10° NNW 04:53:00 40° W 04:57:02 10° SSW
CZ-4B R/B 3.5 04:49:17 10° NNE 04:53:21 58° ESE 04:57:10 10° S
Cosmos 1378 4.3 04:56:33 25° NW 04:56:33 25° NW 04:59:27 10° N
Cosmos 1674 4.0 04:53:22 10° SSE 04:56:53 41° E 05:00:27 10° NNE
Cosmos 1867 3.9 04:53:34 19° WNW 04:57:36 66° NNE 05:03:03 10° ESE
NOSS 2-2 (E) 3.6 04:55:35 29° WSW 04:57:41 86° NNW 05:02:57 10° ENE
Cosmos 1842 4.1 04:57:57 29° WNW 04:58:15 29° WNW 05:01:45 10° N
Cosmos 1484 Rocket 4.2 04:57:31 10° NNE 05:01:07 39° E 05:04:44 10° SSE
Cosmos 676 Rocket 4.3 04:56:12 10° SSW 05:01:25 70° ESE 05:06:39 10° NE
Cosmos 192 4.3 04:57:30 10° NW 05:02:28 77° WSW 05:07:26 10° SSE
ATLAS 5 CENTAUR R/B 3.8 05:01:22 21° WNW 05:05:04 70° SSW 05:24:40 10° SE
Cosmos 1814 Rocket 4.0 05:01:49 10° NNW 05:07:13 88° WSW 05:12:36 10° SSE
ALOS 4.1 05:03:28 10° NNE 05:07:44 34° E 05:11:59 10° SSE
Cosmos 407 Rocket 3.4 05:03:47 13° SW 05:08:24 74° NW 05:13:34 10° NNE
USA 116 3.2 05:06:44 10° SSE 05:10:09 87° ENE 05:13:21 10° NNW
Cosmos 2263 4.2 05:04:46 10° NW 05:10:28 79° SW 05:16:12 10° SSE
Cosmos 1190 Rocket 4.0 05:05:23 10° SW 05:10:41 78° NW 05:16:00 10° NNE
CZ-2C R/B 4.1 05:08:26 10° N 05:11:15 21° NW 05:11:26 21° WNW
GP-B 3.0 05:08:04 10° S 05:12:31 75° W 05:17:00 10° N
Meteor 1-16 Rocket 4.4 05:08:01 10° NNW 05:12:59 40° W 05:17:56 10° SSW
Cosmos 1900 4.4 05:09:35 17° WNW 05:13:23 60° SW 05:18:13 10° SSE
MSX 3.8 05:07:51 10° NNE 05:13:35 70° WNW 05:19:16 10° SSW
Cosmos 1812 Rocket 3.8 05:09:27 10° NNW 05:13:58 77° ENE 05:18:26 10° SSE
SL-16 R/B 2.8 05:10:07 10° SSW 05:15:40 60° ESE 05:21:17 10° NE
Cosmos 1300 3.1 05:12:49 10° N 05:16:39 67° ENE 05:20:27 10° SSE
Genesis I 3.8 05:17:38 18° WNW 05:20:27 51° NNE 05:24:19 10° E
Cosmos 2228 3.8 05:17:13 10° NNW 05:20:51 27° W 05:24:28 10° SSW
Helios 1A Rocket 4.4 05:20:41 10° NNE 05:24:40 42° E 05:28:39 10° S
Cosmos 1626 Rocket 4.4 05:20:37 10° S 05:24:50 54° E 05:29:06 10° NNE
RESURS DK-1 2.8 05:21:48 10° SSW 05:25:53 65° SE 05:30:01 10° NE
ASTEX 1 3.7 05:21:51 10° SSE 05:26:43 70° ENE 05:31:38 10° N
ARIANE 5 R/B 3.9 05:23:15 10° N 05:26:46 20° NW 05:28:46 16° WNW
Meteor 2-10 4.5 05:22:50 10° NNW 05:27:34 37° W 05:32:26 10° SSW
Cosmos 1339 Rocket 4.5 05:22:59 10° NNW 05:29:16 72° W 05:35:36 10° S
USA 229 DEB 3.9 05:23:19 13° WNW 05:29:43 86° NNE 05:37:09 10° ESE
USA 229 3.9 05:23:26 13° WNW 05:29:48 85° NNE 05:37:13 10° ESE
PSLV R/B 4.2 05:26:07 10° N 05:29:57 33° WNW 05:33:26 12° WSW
Meteor PRIRODA 3.6 05:27:06 10° NNE 05:30:53 89° WNW 05:34:38 10° SSW
Meteor 2-17 Rocket 4.5 05:26:42 10° S 05:32:46 87° E 05:38:52 10° NNE
Cosmos 1025 Rocket 4.2 05:31:12 17° W 05:33:09 23° WNW 05:36:38 10° N
COSMO-SKYMED 1 2.8 05:29:32 10° S 05:33:44 46° W 05:37:58 10° NNW
NOSS 3-1 (A) 4.0 05:27:59 14° WNW 05:34:02 78° NNE 05:42:01 10° ESE
Okean 1-7 Rocket 3.6 05:30:16 10° SSW 05:34:43 61° WNW 05:39:15 10° N
NOSS 2-2 (D) 3.7 05:33:42 16° W 05:36:59 72° NNW 05:42:17 10° ENE
NOSS 3-4 (A) 3.6 05:30:47 10° SW 05:37:00 82° SSE 05:43:46 10° ENE
NOSS 3-4 (C) 3.6 05:30:53 10° SW 05:37:06 82° SSE 05:43:53 10° ENE
ATLAS 3B R/B 4.3 05:37:59 12° WSW 05:37:59 12° WSW 05:40:00 10° WSW
Cosmos 2333 Rocket 2.7 05:33:36 15° W 05:38:08 44° NNW 05:43:37 10° NE
Resurs 1-4 Rocket 4.1 05:36:23 10° N 05:38:20 12° NNW 05:40:17 10° NW
Cosmos 614 Rocket 4.2 05:33:49 10° SW 05:38:55 52° NW 05:44:01 10° NNE
ADEOS 4.1 05:35:34 10° N 05:40:22 38° NW 05:45:10 10° WSW
NOSS 0 Rocket 4.0 05:34:15 10° WSW 05:40:23 63° NW 05:46:36 10° NE
Cosmos 1697 Rocket 4.0 05:35:30 10° NW 05:40:37 33° NNE 05:45:43 10° E
Lacrosse 4 Rocket 2.8 05:37:16 11° NW 05:40:46 29° N 05:44:21 10° ENE
CZ-4B R/B 3.9 05:38:54 10° N 05:42:46 55° WNW 05:46:48 10° SW
Cosmos 1140 Rocket 3.5 05:38:07 10° SW 05:43:16 61° NW 05:48:24 10° NNE
SL-14 R/B 4.3 05:40:28 10° S 05:44:15 50° E 05:48:02 10° NNE
PAYLOAD A 4.1 05:39:48 10° N 05:44:26 48° WNW 05:49:11 10° SW
CENTAUR R/B 4.5 05:43:45 12° W 05:45:43 13° WSW 05:49:19 10° SW
Cosmos 2218 Rocket 4.2 05:39:57 10° S 05:46:18 82° E 05:52:37 10° NNE
Cosmos 1954 Rocket 4.0 05:41:47 10° SW 05:47:00 71° NW 05:52:13 10° NNE
SJ-12 4.1 05:44:10 10° NNE 05:48:18 80° ESE 05:52:25 10° SSW
NOSS 3-1 (C) 3.9 05:42:03 10° WNW 05:48:49 90° S 05:56:54 10° ESE
KORONAS-FOTON 3.7 05:45:22 10° SSW 05:49:09 75° WNW 05:52:59 10° NNE
Cosmos 2154 Rocket 4.2 05:43:54 10° SW 05:49:54 50° WNW 05:55:59 10° N
Cosmos 2219 Rocket 2.8 05:45:14 12° W 05:49:59 39° NNW 05:55:16 10° NE
SL-16 R/B 3.5 05:45:32 10° WNW 05:50:25 28° N 05:55:18 10° ENE
Cosmos-2242 3.3 05:47:43 10° NNW 05:52:02 73° ENE 05:56:18 10° SSE
Meteor 1-4 Rocket 3.4 05:51:29 10° WSW 05:54:31 27° WNW 05:57:32 10° N
ERBS 3.0 05:52:32 10° WSW 05:55:44 48° S 05:59:02 10° E
Cosmos 1726 3.5 05:53:46 10° NW 05:56:16 17° W 05:58:45 10° SW
Cosmos 389 Rocket 3.8 05:53:50 10° WSW 05:56:30 21° WNW 05:59:16 10° N
Cosmos 1727 Rocket 4.0 05:51:02 10° NNW 05:57:11 67° W 06:03:23 10° S
Cosmos 1437 Rocket 2.9 05:54:28 10° SW 05:58:09 49° WNW 06:01:54 10° N
CZ-2C R/B 2.8 05:53:52 10° N 05:58:51 46° WNW 06:03:46 10° SW
In-Cosmos 22 4.3 05:53:44 10° SW 05:59:03 54° WNW 06:04:34 10° NNE
Cosmos 2058 Rocket 4.3 05:56:21 10° NW 05:59:41 21° W 06:03:02 10° SW
Cosmos 1602 Rocket 3.6 05:55:29 10° S 05:59:49 85° ESE 06:04:11 10° NNE
ADEOS II 3.8 05:57:48 10° N 06:00:42 15° NW 06:03:35 10° WNW
Okean O Rocket 1.9 05:56:56 10° NNE 06:01:23 76° ESE 06:05:46 10° SSW
Cosmos 1908 4.4 05:58:59 10° NW 06:02:01 22° W 06:05:02 10° SW
PSLV R/B 3.7 05:58:46 10° N 06:02:26 55° WNW 06:06:03 10° SW
Cosmos 2237 Rocket 2.5 05:58:52 10° WSW 06:04:26 51° NW 06:10:03 10° NE
Cosmos 841 Rocket 4.0 06:00:59 10° NW 06:05:54 40° WSW 06:10:47 10° S
CZ-4B DEB 4.2 06:02:17 10° NNE 06:07:49 83° WNW 06:13:17 10° SSW
Cosmos 2369 Rocket 2.9 06:05:15 10° NW 06:10:08 31° WSW 06:14:59 10° S
ADEOS Rocket 3.9 06:03:31 10° SSE 06:11:00 75° ENE 06:18:49 10° NNW
Cosmos 220 Rocket 4.0 06:07:51 10° NW 06:12:06 68° WSW 06:16:23 10° SSE
CZ-2C R/B 3.7 06:08:30 10° SSE 06:12:57 86° ENE 06:17:26 10° NNW
NOSS 2-2 (C) 3.9 06:09:30 10° W 06:13:40 63° N 06:19:11 10° ENE
Meteor 2-5 Rocket 3.9 06:08:22 10° SSW 06:14:13 63° WNW 06:20:09 10° NNE
Cosmos 2123 Rocket 4.4 06:08:01 10° NNW 06:14:16 72° ENE 06:20:26 10° SSE
H-2A R/B 3.7 06:13:37 10° N 06:16:55 23° NW 06:20:18 10° WSW
CZ-2C R/B 4.3 06:13:07 10° ESE 06:18:08 35° NE 06:23:10 10° N
ATLAS 2AS CENTAUR R/B 3.2 06:10:05 10° WSW 06:18:13 76° NNW 06:26:02 10° ENE
SAR-Lupe-2 3.5 06:15:15 10° SSE 06:18:50 81° WSW 06:22:27 10° NNW
Cosmos 2322 Rocket 3.5 06:14:02 10° NW 06:18:51 28° N 06:23:40 10° ENE
Cosmos 1656 Rocket 3.9 06:14:00 10° NW 06:19:15 49° WSW 06:24:27 10° S
Cosmos 1455 2.5 06:16:05 10° NNW 06:19:54 73° ENE 06:23:40 10° SSE
Meteor 1-31 Rocket 3.7 06:16:42 10° N 06:19:58 28° WNW 06:23:14 10° WSW
Cosmos 2341 Rocket 4.2 06:14:01 10° SW 06:20:02 49° WNW 06:26:05 10° N
CZ-4B R/B 3.2 06:15:55 10° NNE 06:21:17 90° ESE 06:26:36 10° SSW
Cosmos 1980 4.2 06:17:17 10° WSW 06:22:41 43° NNW 06:28:06 10° NE
